Regional Weather Roundup
Issued by NWS

Current Version | Previous Version | Text Only | Print | Product List | Glossary On
Versions: 1 2 3 4 5 6 7 8 9 10 11 12 13 14 15 16 17 18 19 20 21 22 23 24 25 26 27 28 29 30 31 32 33 34 35 36 37 38 39 40 41 42 43 44 45 46 47 48 49
000
ASUS42 KTBW 301616
RWRFL
FLORIDA REGIONAL WEATHER ROUNDUP
NATIONAL WEATHER SERVICE TAMPA BAY RUSKIN FL
1200 PM EDT MON MAR 30 2015

NOTE: "FAIR" INDICATES FEW OR NO CLOUDS BELOW 12,000 FEET WITH NO
SIGNIFICANT WEATHER AND/OR OBSTRUCTIONS TO VISIBILITY.


FLZ001>010-012>015-112-114-115-301700-
PANHANDLE FLORIDA

CITY           SKY/WX    TMP DP  RH WIND       PRES   REMARKS
PENSACOLA      CLOUDY    74  62  66 SW16      30.25F
PENSACOLA NAS  PTSUNNY   72  63  73 SW14G22   30.26S
MILTON NAS     PTSUNNY   75  62  64 W12G18    30.25F
CRESTVIEW      MOSUNNY   76  62  62 W10       30.26F
DUKE FIELD     PTSUNNY   73  61  65 W9G18     30.25S
VALPARAISO     PTSUNNY   74  61  65 SW15      30.25F
MARY ESTHER    PTSUNNY   73  60  62 SW10G18   30.25
TRI COUNTY     FAIR      72  61  68 W6        30.26F
PANAMA CITY    CLOUDY    70  61  73 SW13      30.27S
TYNDALL AFB    PTSUNNY   67  61  78 SW8       30.29R
APALACHICOLA   MOSUNNY   72  53  51 SW12      30.29S

STATION/POSITION SKY/WX   TEMP    WIND        PRES    WAVE   SWELL
                          AIR SEA DIR/SP/G            HT/PER HT/PER
                          (F)     (DEG/KT/KT) (MB)    (FT/S) (FT/S)
30.1N   87.6W              69 67  220/ 12/ 14 1024.1R   3/ 5   2/ 8
29.2N   88.2W              71 71  190/ 12/ 12 1025.6F   3/ 5   2/ 8
28.8N   86.0W              70 74  230/  6/  8 1026.6R   1/ 4
PANAMA CITY BEAC           66 63  220/  9/ 10 1025.0R
CAPE SAN BLAS    NOT AVBL
TOWER C                    65     210/ 12/ 13 1025.8R
28.5N   84.5W              68 68  200/  6/  8 1026.5R   2/ 4   2/ 4

$$
FLZ011-016>038-118-127-128-134-139-239-301700-
NORTH FLORIDA

CITY           SKY/WX    TMP DP  RH WIND       PRES   REMARKS
MARIANNA       CLOUDY    70  61  73 W10       30.26S
TALLAHASSEE    MOSUNNY   73  52  47 W7        30.29R
PERRY          SUNNY     70  52  53 S13       30.30S
CROSS CITY       N/A     71  50  47 SW10G18   30.30S
LAKE CITY      FAIR      68  45  42 SW9       30.29S
GAINESVILLE    SUNNY     67  40  37 SW6       30.30S
MAYPORT NAS    PTSUNNY   70  40  33 SW12      30.27F
JACKSONVILLE   MOSUNNY   70  42  36 W13       30.26F
JAX NAS        MOSUNNY   70  40  33 SW13      30.28F
JAX CRAIG      MOSUNNY   68  40  35 SW13      30.28S
JAX CECIL      SUNNY     68  41  37 SW8       30.29F
FERNANDINA BEA PTSUNNY   73  41  31 SW13      30.25F
ST AUGUSTINE   SUNNY     70  43  37 SW9       30.29F

STATION/POSITION SKY/WX   TEMP    WIND        PRES    WAVE   SWELL
                          AIR SEA DIR/SP/G            HT/PER HT/PER
                          (F)     (DEG/KT/KT) (MB)    (FT/S) (FT/S)
SHELL POINT                65     190/ 11/ 15   N/A
KEATON BEACH               63     200/ 10/ 11 1026.4R
CEDAR KEY                  65     220/  5/  6 1026.9R
FERNANDINA                 63 61  210/ 12/ 14 1024.4R
30.7N   81.3W                 60                N/A     2/ 9
MAYPORT                    64 62  240/ 11/ 14 1025.2R
31.4N   80.9W              60 60  210/ 16/ 19 1024.0F   3/ 8   2/ 8
ST AUGUSTINE               67 61  250/  7/ 11 1026.4F

$$
FLZ040-043>046-052-053-057-058-063-144-301700-
INTERIOR CENTRAL FLORIDA

CITY           SKY/WX    TMP DP  RH WIND       PRES   REMARKS
OCALA          SUNNY     68  39  34 SW9       30.31S
THE VILLAGES     N/A     68  41  37 VRB5      30.21S
LEESBURG       SUNNY     68  41  37 W5        30.31F
SANFORD        SUNNY     69  37  30 SW7       30.30F
ORLANDO EXEC   SUNNY     68  41  37 CALM      30.30S
ORLANDO INTL   SUNNY     69  39  33 W6        30.30F
KISSIMMEE      SUNNY     70  39  32 CALM      30.31S
WINTER HAVEN   SUNNY     70  41  34 NW8       30.32S
LAKELAND       SUNNY     68  43  40 NW3       30.31S
BARTOW         SUNNY     66  37  34 NW5       30.32R
OKEECHOBEE     SUNNY     70  50  49 W3        30.28F

$$
FLZ041-047-054-059-064-141-147-301700-
EAST CENTRAL FLORIDA

CITY           SKY/WX    TMP DP  RH WIND       PRES   REMARKS
ORMOND BEACH   SUNNY     66  45  45 SW6       30.29F VSB 1
DAYTONA BEACH  MOSUNNY   69  44  40 S7        30.29F
DELAND           N/A    N/A N/A N/A W3        30.30F
NEW SMYRNA BEA SUNNY     70  48  46 W7        30.32S
JFK SPACE CTR    N/A     69  39  32 SW10      30.29
TITUSVILLE     SUNNY     68  41  37 W12       30.31R
CAPE CANAVERAL SUNNY     70  44  40 SW8       30.29R
PATRICK AFB    SUNNY     70  44  39 SW10      30.29S
MELBOURNE      SUNNY     71  47  42 VRB6      30.29S
VERO BEACH     MOSUNNY   71  47  42 CALM      30.28F
FT PIERCE      MOSUNNY   72  50  45 CALM      30.27F
STUART         MOSUNNY   72  46  40 N8        30.28S

STATION/POSITION SKY/WX   TEMP    WIND        PRES    WAVE   SWELL
                          AIR SEA DIR/SP/G            HT/PER HT/PER
                          (F)     (DEG/KT/KT) (MB)    (FT/S) (FT/S)
28.5N   80.2W              64 69  290/  8/ 10 1026.2R
28.9N   78.5W              67 75  180/  4/  6 1025.9R
TRIDENT PIER               66 71  230/  6/  9 1026.2F
28.4N   80.5W                 69                N/A     2/ 8
27.5N   80.2W                 74                N/A     3/ 9   2/11

$$
FLZ050-056-061-142-242-148-248-149-249-151-251-155-255-
160-260-301700-
WEST CENTRAL FLORIDA

CITY           SKY/WX    TMP DP  RH WIND       PRES   REMARKS
CRYSTAL RIVER  FAIR      68  41  37 W5        30.31S
INVERNESS      FAIR     N/A N/A N/A CALM      30.31F
BROOKSVILLE    SUNNY     69  42  37 CALM      30.32S
ZEPHYRHILLS    FAIR      68  36  30 CALM      30.32S
CLEARWATER     SUNNY     69  51  52 NE7       30.31S
TAMPA INTL     SUNNY     68  45  43 SW7       30.31S
TAMPA EXEC     SUNNY     72  41  33 CALM      30.32S
PLANT CITY     SUNNY     70  45  40 W6        30.32F
MACDILL AFB    SUNNY     71  46  40 SW6       30.31S
PETER O KNIGHT SUNNY     70  43  37 SE5       30.31F
ST PETERSBURG  SUNNY     67  50  54 E5        30.29S
SARASOTA       SUNNY     70  42  36 W7        30.28F
VENICE         FAIR      70  43  37 CALM      30.30S

STATION/POSITION SKY/WX   TEMP    WIND        PRES    WAVE   SWELL
                          AIR SEA DIR/SP/G            HT/PER HT/PER
                          (F)     (DEG/KT/KT) (MB)    (FT/S) (FT/S)
CEDAR KEY                  65     220/  5/  6 1026.9R
28.5N   84.5W              68 68  200/  6/  8 1026.5R   2/ 4   2/ 4
27.3N   84.2W                 71                N/A     2/ 5
CLEARWATER BEACH NOT AVBL
MIDDLE TAMPA BAY           67     160/  4/  5 1026.4R
VENICE                     69 71  280/  5/  7 1025.4R

$$
FLZ066-069-070-075>078-162-262-165-265-301700-
SOUTHWEST FLORIDA AND KEYS

CITY           SKY/WX    TMP DP  RH WIND       PRES   REMARKS
PUNTA GORDA    SUNNY     72  41  32 N8        30.30S
FT MYERS       SUNNY     73  43  33 CALM      30.27F
SOUTHWEST INTL SUNNY     71  43  36 VRB3      30.27F
NAPLES         SUNNY     73  44  35 W6        30.27S
MARCO ISLAND   SUNNY     73  41  31 W6        30.26S
IMMOKALEE      SUNNY    N/A N/A N/A CALM      30.28S
MARATHON       MOSUNNY   73  60  63 NE12      30.24R
KEY WEST NAS   CLOUDY    74  58  57 E10       30.24R
KEY WEST INTL  PTSUNNY   75  61  61 NE8       30.24S

STATION/POSITION SKY/WX   TEMP    WIND        PRES    WAVE   SWELL
                          AIR SEA DIR/SP/G            HT/PER HT/PER
                          (F)     (DEG/KT/KT) (MB)    (FT/S) (FT/S)
VENICE                     69 71  280/  5/  7 1025.4R
NAPLES                     69 72   50/  5/  7 1024.6R
26.0N   85.6W              71 74  100/  6/ 10 1025.1R   2/ 5   2/ 5
DRY TORTUGAS               71      90/ 10/ 12 1024.0R
NW FL BAY                  71      80/  8/ 10 1024.2
SAND KEY                   71      70/ 11/ 13 1023.8R
SOMBRERO KEY               70      40/ 12/ 13 1024.4R
LONG KEY                   70 72   20/ 10/ 12 1024.8R
MOLASSES REEF              71 76   50/  8/  9 1023.8S

$$
FLZ067-068-071>074-168-172>174-301700-
SOUTHEAST FLORIDA

CITY           SKY/WX    TMP DP  RH WIND       PRES   REMARKS
W PALM BEACH   MOSUNNY   73  47  39 VRB3      30.25S
FT LAUDER-EXEC MOSUNNY   74  50  42 CALM      30.25R
FT LAUDERDALE  MOSUNNY   74  52  46 VRB3      30.24S
POMPANO BEACH  MOSUNNY   74  50  42 SE9       30.25S
PEMBROKE PINES PTSUNNY   74  51  44 VRB5      30.26R
OPA LOCKA      MOSUNNY   75  52  44 E10       30.25R
MIAMI          MOSUNNY   76  50  40 NE6       30.24F
WEST KENDALL   MOSUNNY   75  52  44 VRB5      30.25R
HOMESTEAD      MOSUNNY   75  55  49 VRB7      30.24S

STATION/POSITION SKY/WX   TEMP    WIND        PRES    WAVE   SWELL
                          AIR SEA DIR/SP/G            HT/PER HT/PER
                          (F)     (DEG/KT/KT) (MB)    (FT/S) (FT/S)
PORT EVERGLADES            72      60/  3/  6 1024.0R



USA.gov is the U.S. government's official web portal to all federal, state and local government web resources and services.